Погода в Репном

Россия / Саратовская область     51°35′15″N   43°10′37″E
темп.,
°C
ветер,
м/с
пор.,
м/с
влажн.,
%
обл.,
%
осадки,
мм/ч
давл.,
гПа
погр.,
м
20 апреля, вт
вт2001:00+8в51088100 0.4 1017617
04:00+7в61189100 0.6 1017550
07:00+5в61288100 1.2 1017586
10:00+5в81488100 1.7 1017592
13:00+5вюв81589100 0.7 1016622
16:00+6вюв91787100 0.9 1014764
19:00+5вюв101991100 3.3 1012778
22:00+8юв122393100 10.9 10081058
21 апреля, ср
ср2101:00+10ююв142390100 3.1 10061124
04:00+10ююв8158816 5.5 1008483
07:00+10ю8158966 0.9 1008818
10:00+11ю9138199 1.4 10111136
13:00+10ю81382100 0.3 10121135
16:00+9юз71282100 0.5 10141079
19:00+10юз498146 0.0 1016714
22:00+8ююв3390100 0.1 101863
22 апреля, чт
чт2201:00+7ю35915 0.1 101882
04:00+6ююз35875 0.1 101986
07:00+6ююз36845 0.0 1020119
10:00+11юз466299 0.0 1022610
13:00+14зюз575652 0.3 10211725
16:00+15зюз464799 1.1 10212323
19:00+13зсз1162100 0.0 102214
22:00+11в2370100 0.0 102338
23 апреля, пт
пт2301:00+11ююв3372100 0.0 102244
04:00+10ююв3576100 0.0 102390
07:00+10ююв3575100 0.0 1023103
10:00+13ююв356694 0.0 1023287
13:00+17вюв334280 0.0 10212261
16:00+15вюв3557100 0.3 1021661
19:00+14ю3465100 1.4 1020123
22:00+11ю238083 2.0 102089
24 апреля, сб
сб2401:00+9в229015 0.2 101824
04:00+9юв3685100 0.2 1017147
07:00+9ююв378399 0.1 1016223
10:00+13ююв676912 0.1 1014594
13:00+16ююз7951100 1.0 10121711
16:00+14зюз81063100 1.9 10111188
19:00+8зсз5886100 2.1 1013748
22:00+6зюз38875 2.3 1015285